Location: Plainartige
(45.6866°N, 1.7993°E)
Time: 13:30:31
(UTC+00:00)

DIWATA 2B (PO-101) - Pass Details

Date: 04 July 2022
Orbit: 583 x 599 km, 98.0° (Epoch: 19 August)

Event Time Altitude Azimuth Distance (km) Brightness Sun altitude
Exits shadow 00:27:26 - 109° (ESE) 2,190 ? -21.1°
Reaches altitude 10° 00:28:19 10° 101° (E) 1,941 ? -21.1°
Maximum altitude 00:30:58 16° 62° (ENE) 1,566 ? -21.0°
Drops below altitude 10° 00:33:37 10° 23° (NNE) 1,950 ? -20.9°
Sets 00:36:27 0° 3° (N) 2,858 ? -20.8°
